Amarillo, TX

8:35 AM CDT on July 18, 2019 (GMT -0500)
Amarillo International

Weather History for KAMA - May, 2019

Change the Weather History Date:

Wednesday, May 1, 2019

  Actual Average Record
Temperature  
Mean Temperature 67 °F 61 °F  
Max Temperature 82 °F 75 °F 95 °F (1992)
Min Temperature 52 °F 47 °F 27 °F (1909)
Degree Days  
Heating Degree Days 0 5  
Month to date heating degree days 0 5  
Since 1 July heating degree days 3983 4093  
Cooling Degree Days 2 1  
Month to date cooling degree days 2 1  
Year to date cooling degree days 18 22  
Growing Degree Days 17 (Base 50)    
Moisture  
Dew Point 49 °F    
Average Humidity 58    
Maximum Humidity 100    
Minimum Humidity 15    
Precipitation  
Precipitation 0.00 in 0.05 in 1.49 in (1999)
Month to date precipitation 0.00 0.05  
Year to date precipitation 4.09 4.12  
Snow  
Snow 0.00 in 0.00 in T in (2013)
Month to date snowfall 0.0 0.0  
Since 1 July snowfall 8.1 17.6  
Snow Depth 0.00 in    
Sea Level Pressure  
Sea Level Pressure 29.82 in    
Wind  
Wind Speed 12 mph (SSE)    
Max Wind Speed 30 mph    
Max Gust Speed 37 mph    
Visibility 5 miles    
Events Fog    
T = Trace of Precipitation, MM = Missing Value Source: NWS Daily Summary

Daily Weather History Graph

Daily Weather History Graph

Search for Another Location

Airport or City:

Astronomy

May. 01, 2019 Rise Set
Actual Time 6:55 AM CDT 8:32 PM CDT
Civil Twilight 6:28 AM CDT 8:59 PM CDT
Nautical Twilight 5:56 AM CDT 9:32 PM CDT
Astronomical Twilight 5:21 AM CDT 10:07 PM CDT
Moon 5:30 AM CDT (5/1) 5:32 PM CDT (5/1)
Length of Visible Light 14h 31m
Length of Day
13h 36m
Waning Crescent, 10% of the Moon is Illuminated
May 1
Waning Crescent
May 4
New
May 11
First Quarter
May 18
Full
May 26
Last Quarter

Hourly Weather History & Observations

Time (CDT) Temp. Dew Point Humidity Pressure Visibility Wind Dir Wind Speed Gust Speed Precip Events Conditions
12:36 AM 53.1 °F 51.1 °F 93% 29.85 in 1.8 mi SE 9.2 mph - N/A   Partly Cloudy
12:39 AM 53.1 °F 52.0 °F 96% 29.85 in 0.8 mi SSE 8.1 mph - N/A   Mist
12:44 AM 53.1 °F 52.0 °F 96% 29.85 in 0.2 mi SSE 8.1 mph - N/A Fog Fog
12:53 AM 52.0 °F 51.1 °F 97% 29.79 in 0.2 mi SE 9.2 mph - N/A Fog Fog
1:43 AM 52.0 °F 52.0 °F 100% 29.86 in 0.5 mi SSE 8.1 mph - N/A Fog Fog
1:53 AM 52.0 °F 51.1 °F 97% 29.79 in 0.2 mi SE 9.2 mph - N/A Fog Fog
2:05 AM 52.0 °F 51.1 °F 97% 29.85 in 0.2 mi SE 9.2 mph - N/A Fog Fog
2:53 AM 53.1 °F 52.0 °F 96% 29.79 in 0.2 mi SSE 9.2 mph - N/A Fog Fog
3:42 AM 54.0 °F 54.0 °F 100% 29.85 in 0.5 mi SSE 12.7 mph - N/A Fog Fog
3:53 AM 55.0 °F 54.0 °F 96% 29.77 in 0.5 mi South 11.5 mph - N/A Fog Fog
4:11 AM 54.0 °F 53.1 °F 97% 29.85 in 0.8 mi South 12.7 mph - N/A   Mist
4:25 AM 54.0 °F 53.1 °F 97% 29.85 in 0.5 mi SSE 12.7 mph - N/A Fog Fog
4:53 AM 54.0 °F 53.1 °F 97% 29.77 in 0.5 mi South 10.4 mph - N/A Fog Fog
5:03 AM 54.0 °F 53.1 °F 97% 29.85 in 0.2 mi South 6.9 mph - N/A Fog Fog
5:53 AM 53.1 °F 52.0 °F 96% 29.77 in 0.2 mi South 10.4 mph - N/A Fog Fog
6:48 AM 53.6 °F 51.8 °F 94% 29.86 in 0.2 mi SE 9.2 mph - N/A Fog Fog
6:53 AM 53.1 °F 52.0 °F 96% 29.78 in 0.2 mi SE 10.4 mph - N/A Fog Fog
7:09 AM 53.1 °F 52.0 °F 96% 29.88 in 0.2 mi SE 9.2 mph - N/A Fog Fog
7:53 AM 53.1 °F 52.0 °F 96% 29.81 in 0.2 mi SE 10.4 mph - N/A Fog Fog
8:21 AM 53.1 °F 52.0 °F 96% 29.91 in 0.2 mi ESE 6.9 mph - N/A Fog Fog
8:27 AM 53.1 °F 52.0 °F 96% 29.91 in 0.8 mi ESE 9.2 mph - N/A   Mist
8:35 AM 53.1 °F 52.0 °F 96% 29.91 in 0.8 mi SE 9.2 mph - N/A   Overcast
8:43 AM 53.1 °F 52.0 °F 96% 29.91 in 1.0 mi SE 9.2 mph - N/A   Overcast
8:53 AM 53.1 °F 52.0 °F 96% 29.83 in 1.0 mi ESE 9.2 mph - N/A   Overcast
9:04 AM 53.1 °F 52.0 °F 96% 29.92 in 1.5 mi SE 8.1 mph - N/A   Overcast
9:24 AM 53.1 °F 52.0 °F 96% 29.93 in 5.0 mi SE 5.8 mph - N/A   Overcast
9:29 AM 53.1 °F 52.0 °F 96% 29.92 in 10.0 mi SE 5.8 mph - N/A   Overcast
9:53 AM 55.0 °F 52.0 °F 89% 29.85 in 10.0 mi SE 5.8 mph - N/A   Overcast
10:53 AM 59.0 °F 53.1 °F 81% 29.85 in 10.0 mi SSE 9.2 mph - N/A   Mostly Cloudy
10:59 AM 60.1 °F 53.1 °F 78% 29.93 in 10.0 mi SSE 11.5 mph - N/A   Scattered Clouds
11:53 AM 64.9 °F 53.1 °F 65% 29.84 in 10.0 mi SSE 10.4 mph - N/A   Clear
12:53 PM 69.1 °F 50.0 °F 51% 29.83 in 10.0 mi South 8.1 mph - N/A   Clear
1:53 PM 75.0 °F 46.0 °F 36% 29.79 in 10.0 mi South 15.0 mph - N/A   Clear
2:53 PM 79.0 °F 44.1 °F 29% 29.76 in 10.0 mi SSW 13.8 mph 27.6 mph N/A   Clear
3:53 PM 81.0 °F 34.0 °F 18% 29.73 in 10.0 mi SSW 17.3 mph 26.5 mph N/A   Clear
4:53 PM 81.0 °F 30.9 °F 16% 29.71 in 10.0 mi WSW 18.4 mph - N/A   Clear
5:53 PM 81.0 °F 28.9 °F 15% 29.71 in 10.0 mi WSW 19.6 mph 26.5 mph N/A   Clear
6:53 PM 79.0 °F 30.9 °F 17% 29.71 in 10.0 mi WSW 13.8 mph 24.2 mph N/A   Clear
7:53 PM 73.9 °F 35.1 °F 24% 29.72 in 10.0 mi SW 10.4 mph - N/A   Clear
8:53 PM 70.0 °F 35.1 °F 28% 29.74 in 10.0 mi SSW 6.9 mph - N/A   Clear
9:53 PM 61.0 °F 45.0 °F 56% 29.78 in 10.0 mi SE 13.8 mph - N/A   Clear
10:53 PM 64.0 °F 60.1 °F 87% 29.78 in 8.0 mi SE 17.3 mph 24.2 mph N/A   Clear
11:53 PM 63.0 °F 60.1 °F 90% 29.79 in 6.0 mi SE 12.7 mph - N/A   Clear